FORMOSAT-5 (42920 NORAD) Tracking and Keplerian Element Data

This shows tracking and keplerian element data for the satellite.

Feedback or suggestion? Click here.




ElementValue
Catalog42920
NameFORMOSAT-5
Epoch Orbit21546
Epoch Day261.71674501
Epoch Year2021
RAAN339.5101
Inclination98.2656
Eccentricity0.0010615
Argument of Perigee13.3618
Mean Anonmoly346.7862
Mean Motion14.50868698
Decay Rate-8.2E-07
L11 42920U 17049A 21261.71674501 -.00000082 00000-0 -95325-5 0 9992
L22 42920 98.2656 339.5101 0010615 13.3618 346.7862 14.50868698215461

Live tracking and technical data element details for FORMOSAT-5 (NORAD 42920). FORMOSAT-5 can be tracked NOW for your location showing map with azimuth and elevation plus other details from your city location.

Track the satellite on the map from your city or location and see movement details for azimuth, elevation, latitude, longitude, range, height, and movement on the map or in text.







IsCatalogInMostPopularTable: catalog: 42920, numindb: 586
Update: records affected: 1



GetName: 42920 FORMOSAT-5

Hit Count: updated at: Fri, 24 Sep 2021 17:21:51 GMT